Regional Weather Roundup
Issued by NWS Mt. Holly, NJ

Home | Current Version | Previous Version | Text Only | Print | Product List | Glossary On
Versions: 1 2 3 4 5 6 7 8 9 10 11 12 13 14 15 16 17 18 19 20 21 22 23 24 25 26 27 28 29 30 31 32 33 34 35 36 37 38 39 40 41 42 43 44 45 46 47 48 49 50
815
ASUS41 KPHI 280712
RWRPHI

REGIONAL WEATHER ROUNDUP
NATIONAL WEATHER SERVICE MOUNT HOLLY NJ
300 AM EDT WED SEP 28 2016

NOTE:  "FAIR" INDICATES FEW OR NO CLOUDS BELOW 12,000 FEET WITH NO
SIGNIFICANT WEATHER AND/OR OBSTRUCTIONS TO VISIBILITY.

 * = STATION DOES NOT REPORT PRECIPITATION (E.G. RAIN, SNOW, ETC.)
        OR FOG.

NJZ015>026-280800-
SOUTHERN NEW JERSEY

CITY           SKY/WX    TMP DP  RH WIND       PRES   REMARKS
POMONA         MOCLDY    61  58  90 CALM      30.00R
WILDWOOD*        N/A     64  63  96 CALM      29.99R
MILLVILLE      PTCLDY    54  54 100 CALM      29.99S FOG
WRIGHTSTOWN    FOG       55  54  94 SW2       29.98S VSB 1
MOUNT HOLLY    FOG       53  53 100 CALM      30.00S VSB 1/2
TRENTON        CLEAR     53  50  89 NW3       30.00R

$$
NJZ001>014-280800-
NORTHERN NEW JERSEY

CITY           SKY/WX    TMP DP  RH WIND       PRES   REMARKS
SUSSEX         LGT RAIN  45  45 100 CALM      30.04R
ANDOVER*         N/A     48  46  93 CALM      30.03R
MORRISTOWN     CLEAR     43  43 100 CALM      30.03R
NEWARK         PTCLDY    59  54  83 N6        30.01R
TETERBORO      CLEAR     56  51  84 N3        30.01R
CALDWELL       CLEAR     53  51  93 CALM      30.03R
SOMERVILLE     CLEAR     48  47  96 NW5       30.00R
ALLAIRE*       CLEAR     57  56  96 CALM      30.01R
TOMS RIVER*    CLOUDY    53  52  96 CALM      30.01R

$$
PAZ043-044-047-054-055-060>062-066>071-280800-
EASTERN PENNSYLVANIA

CITY           SKY/WX    TMP DP  RH WIND       PRES   REMARKS
PHILADELPHIA   PTCLDY    60  56  86 N3        30.00S
NORTH PHILA    CLEAR     57  54  89 CALM      30.02R
BLUE BELL*     CLEAR     48  48 100 CALM      30.00S
DOYLESTOWN     CLEAR     53  50  89 CALM      30.00R
QUAKERTOWN*    CLEAR     46  46 100 CALM      30.02S
PERKASIE*      FAIR      46  46 100 CALM      30.02S
POTTSTOWN      CLEAR     51  49  92 CALM      30.02S
LANCASTER      CLOUDY    58  58 100 CALM      30.00R
COATESVILLE    CLEAR     54  54 100 CALM      30.01S
READING        CLEAR     52  49  89 N3        30.00R
ALLENTOWN      CLEAR     49  45  86 CALM      30.02R
MOUNT POCONO   CLEAR     42  41  96 NE3       30.04R
HAZLETON       CLEAR     45  43  93 CALM        N/A
LEHIGHTON        N/A     43  43 100 CALM      30.04R
WILKES BARRE   CLEAR     51  46  83 E5        30.02R

$$
DEZALL-MDZ008-012-015-019-020-280800-
DELAWARE AND EASTERN MARYLAND

CITY           SKY/WX    TMP DP  RH WIND       PRES   REMARKS
WILMINGTON     CLEAR     58  57  97 CALM      30.00R
DOVER          CLEAR     58  58 100 NW5       29.97S
GEORGETOWN     CLOUDY    65  64  97 NE3       29.97S
PATUXENT       CLOUDY    68  66  93 E6        29.95S FOG
OCEAN CITY     CLOUDY    69  67  93 CALM      29.96S
WALLOPS ISLAND CLOUDY    69  68  96 N5        29.95S
CAMBRIDGE      PTCLDY    59  59 100 CALM      29.96S
SALISBURY      MOCLDY    65  64  97 N3        29.96S FOG

$$
PAZ001-021-NYZ056-072-MDZ011-DCZ001-280800-
OTHER NEARBY LOCATIONS

CITY           SKY/WX    TMP DP  RH WIND       PRES   REMARKS
HARRISBURG     PTCLDY    55  53  93 NE3       29.99R
STATE COLLEGE  CLEAR     46  45  95 CALM      29.99S
WILLIAMSPORT   PTCLDY    49  48  97 CALM      29.99R
BINGHAMTON     CLEAR     49  44  83 E5        30.02R
NEW YORK CITY  CLEAR     63  60  90 N3        30.03R FOG
BALTIMORE      PTCLDY    57  55  93 CALM      29.97R
WASHINGTON DC  CLOUDY    65  63  93 NE6       29.96S

$$




USA.gov is the U.S. government's official web portal to all federal, state and local government web resources and services.